This demonstration page uses our WeatherBlox Daily Observations layout. Learn more.

Hourly Observations for June 6, 2015

Temp ( °F °C ) Dew Point ( °F °C ) Humidity (%) Winds ( mph kmh ) Pressure ( in mb ) Visibility ( mi km ) Precip ( " mm )
12:15 am 00:15 Cloudy with Thunderstorms 68 20.2 64 17.6 85 85 ENE 5 7 30 1016 10 16.0934 0 0
12:35 am 00:35 Cloudy 69 20.5 63 17.3 82 82 E 5 7 29.97 1015 10 16.0934 0 0
12:55 am 00:55 Mostly Cloudy 68 20.2 64 17.5 85 85 ESE 3 6 30 1016 10 16.0934 0 0
1:15 am 01:15 Partly Cloudy 68 20 64 17.5 86 86 SE 5 7 30 1016 10 16.0934 0 0
1:35 am 01:35 Mostly Cloudy with Light Rain 67 19.5 64 17.5 88 88 Calm 29.94 1014 10 16.0934 0 0
1:55 am 01:55 Cloudy with Thunderstorms 68 19.8 62 16.8 83 83 WNW 13 20 30 1016 10 16.0934 0.01 0.254
2:15 am 02:15 Cloudy with Nearby Thunderstorms 64 17.5 61 16.1 92 92 WNW 10 17 29.97 1015 4 6.43736 0.22 5.588
2:35 am 02:35 Cloudy 63 17.3 60 15.7 90 90 Calm 29.97 1015 10 16.0934 0.24 6.096
2:55 am 02:55 Partly Cloudy 64 17.5 61 16.3 93 93 ESE 16 26 29.91 1013 10 16.0934 0.24 6.096
3:15 am 03:15 Clear 64 17.7 62 16.8 95 95 ESE 15 24 29.94 1014 10 16.0934 0 0
3:35 am 03:35 Partly Cloudy 64 17.5 62 16.6 95 95 E 14 22 29.91 1013 10 16.0934 0 0
3:55 am 03:55 Clear 64 18 63 17 94 94 E 12 19 29.91 1013 10 16.0934 0 0
4:15 am 04:15 Clear 64 18 63 17 94 94 ESE 8 13 29.91 1013 10 16.0934 0 0
4:35 am 04:35 Clear 65 18.6 63 17.1 91 91 SE 9 15 29.91 1013 10 16.0934 0 0
4:55 am 04:55 Clear 66 19 63 17 88 88 ESE 15 24 29.91 1013 10 16.0934 0 0
5:15 am 05:15 Clear 66 18.7 62 16.6 88 88 SE 15 24 29.91 1013 10 16.0934 0 0
5:35 am 05:35 Clear 65 18.5 62 16.6 89 89 SE 15 24 29.91 1013 10 16.0934 0 0
5:55 am 05:55 Clear 65 18.5 62 16.5 88 88 SE 16 26 29.91 1013 10 16.0934 0 0
6:15 am 06:15 Sunny 65 18.5 62 16.5 88 88 SE 16 26 29.91 1013 10 16.0934 0 0
6:35 am 06:35 Sunny 65 18.1 61 16.1 88 88 SE 15 24 29.91 1013 10 16.0934 0 0
6:55 am 06:55 Sunny 64 17.8 61 16.2 90 90 SE 16 26 29.91 1013 10 16.0934 0 0
7:15 am 07:15 Sunny 64 17.8 61 16.3 91 91 SE 17 28 29.91 1013 10 16.0934 0 0
7:35 am 07:35 Sunny 64 17.8 62 16.5 92 92 SE 16 26 29.91 1013 10 16.0934 0 0
7:55 am 07:55 Partly Cloudy 64 18 62 16.5 91 91 SE 16 26 29.91 1013 10 16.0934 0 0
8:15 am 08:15 Mostly Cloudy 64 18 62 16.7 92 92 SE 17 28 29.91 1013 10 16.0934 0 0
8:35 am 08:35 Mostly Cloudy 66 18.9 63 17.3 90 90 SSE 16 26 29.91 1013 10 16.0934 0 0
8:55 am 08:55 Partly Cloudy 68 19.9 65 18.1 89 89 SSE 15 24 29.88 1012 10 16.0934 0 0
9:15 am 09:15 Sunny 69 20.8 65 18.5 87 87 SSE 16 26 29.88 1012 10 16.0934 0 0
9:35 am 09:35 Sunny 72 22.1 66 18.9 82 82 SSE 16 26 29.88 1012 10 16.0934 0 0
9:55 am 09:55 Sunny 73 23 66 18.9 78 78 SSE 17 28 29.85 1011 10 16.0934 0 0
10:55 am 10:55 Sunny 77 25.1 66 18.7 68 68 S 17 28 29.83 1010 10 16.0934 0 0
11:35 am 11:35 Partly Cloudy 78 25.7 66 19.1 67 67 S 14 22 29.83 1010 10 16.0934 0 0
11:55 am 11:55 Partly Cloudy 78 25.5 66 18.9 67 67 SSE 15 24 29.83 1010 10 16.0934 0 0
12:15 pm 12:15 Partly Cloudy 79 26.1 66 18.9 65 65 S 17 28 29.77 1008 10 16.0934 0 0
12:35 pm 12:35 Mostly Cloudy 80 26.8 66 18.7 61 61 S 16 26 29.77 1008 10 16.0934 0 0
12:55 pm 12:55 Partly Cloudy 82 27.6 66 18.9 59 59 S 21 33 29.77 1008 10 16.0934 0 0
1:15 pm 13:15 Sunny 83 28.1 65 18.6 56 56 S 18 30 29.74 1007 10 16.0934 0 0
1:35 pm 13:35 Sunny 84 28.7 65 18.4 54 54 S 18 30 29.74 1007 10 16.0934 0 0
1:55 pm 13:55 Sunny 83 28.6 65 18.6 55 55 S 15 24 29.74 1007 10 16.0934 0 0
2:15 pm 14:15 Partly Cloudy 84 28.9 65 18.6 54 54 S 14 22 29.74 1007 10 16.0934 0 0
2:35 pm 14:35 Partly Cloudy 85 29.4 66 18.9 53 53 SSE 20 31 29.74 1007 10 16.0934 0 0
2:55 pm 14:55 Partly Cloudy 85 29.3 66 18.9 54 54 SSE 20 31 29.68 1005 10 16.0934 0 0
3:15 pm 15:15 Partly Cloudy 84 29.1 65 18.2 52 52 S 18 30 29.68 1005 10 16.0934 0 0
3:35 pm 15:35 Partly Cloudy 86 30.1 64 17.5 47 47 S 18 30 29.65 1004 10 16.0934 0 0
3:55 pm 15:55 Sunny 86 30 62 16.5 44 44 S 17 28 29.65 1004 10 16.0934 0 0
4:15 pm 16:15 Partly Cloudy with Nearby Thunderstorms 83 28.2 65 18.2 55 55 S 18 30 29.71 1006 10 16.0934 0 0
4:35 pm 16:35 undefined N/A N/A N/A S 13 20 N/A N/A 0 0
4:55 pm 16:55 Partly Cloudy 74 23.6 63 17.3 68 68 SSW 15 24 29.71 1006 10 16.0934 0.02 0.508
5:15 pm 17:15 Mostly Cloudy 73 22.6 66 18.8 79 79 SE 18 30 29.71 1006 10 16.0934 0.2 5.08
5:35 pm 17:35 Partly Cloudy with Thunderstorms 74 23.1 66 18.7 76 76 ESE 9 15 29.68 1005 10 16.0934 0.2 5.08
5:55 pm 17:55 Sunny 78 25.3 65 18.5 66 66 SE 7 11 29.65 1004 10 16.0934 0.21 5.334
6:15 pm 18:15 Sunny 80 26.6 67 19.2 64 64 Calm 29.65 1004 10 16.0934 0 0
6:35 pm 18:35 Sunny 82 27.5 68 19.8 63 63 SE 6 9 29.65 1004 10 16.0934 0 0
6:55 pm 18:55 Partly Cloudy 81 27.3 70 21.1 69 69 S 5 7 29.65 1004 10 16.0934 0 0
7:15 pm 19:15 Partly Cloudy 83 28.5 67 19.6 59 59 SW 6 9 29.62 1003 10 16.0934 0 0
7:35 pm 19:35 Partly Cloudy 83 28.1 68 19.9 61 61 SW 8 13 29.65 1004 10 16.0934 0 0
7:55 pm 19:55 Sunny 83 28.5 67 19.2 57 57 SSW 8 13 29.62 1003 10 16.0934 0 0
8:15 pm 20:15 Partly Cloudy 80 26.9 67 19.7 65 65 SW 5 7 29.65 1004 10 16.0934 0 0
8:35 pm 20:35 Sunny 80 26.9 65 18.6 60 60 SW 7 11 29.65 1004 10 16.0934 0 0
8:55 pm 20:55 Partly Cloudy 79 25.9 65 18.6 64 64 S 9 15 29.65 1004 10 16.0934 0 0
9:15 pm 21:15 Clear 77 24.9 66 18.8 69 69 SW 8 13 29.65 1004 10 16.0934 0 0
9:35 pm 21:35 Clear 76 24.3 65 18.5 70 70 SW 6 9 29.68 1005 10 16.0934 0 0
9:55 pm 21:55 Clear 77 25 64 17.5 63 63 SW 6 9 29.65 1004 10 16.0934 0 0
10:15 pm 22:15 Clear 75 24 64 17.7 68 68 SW 7 11 29.68 1005 10 16.0934 0 0
10:35 pm 22:35 Clear 74 23.6 64 17.6 69 69 SSW 8 13 29.68 1005 10 16.0934 0 0
10:55 pm 22:55 Partly Cloudy 74 23.4 64 17.7 70 70 WSW 6 9 29.71 1006 10 16.0934 0 0
11:15 pm 23:15 Partly Cloudy 74 23.6 64 17.8 70 70 SW 6 9 29.71 1006 10 16.0934 0 0
11:35 pm 23:35 Clear 73 22.5 64 18 76 76 SW 7 11 29.71 1006 10 16.0934 0 0
11:55 pm 23:55 Clear 73 22.5 64 18 76 76 SW 5 7 29.71 1006 10 16.0934 0 0

Powered by AerisWeather